Location: *
(35.8942°N, 23.3025°E)
Time: 12:15:13
(UTC+00:00)

FO-99 - Visible Passes

Search period start: 02 April 2023 00:00
Search period end: 12 April 2023 00:00
Orbit: 421 x 442 km, 97.1° (Epoch: 01 April)

Date Brightness Start Highest point End Pass type
(mag) Time Alt. Az. Time Alt. Az. Time Alt. Az.
02 Apr ? 17:09:16 10° SSE 17:12:30 50° ENE 17:15:45 10° N visible
03 Apr ? 18:01:32 10° SSW 18:04:18 24° W 18:07:05 10° NW visible
04 Apr ? 17:20:15 10° SSE 17:23:33 77° ENE 17:26:53 10° N visible
05 Apr ? 18:12:57 10° SW 18:15:12 17° W 18:17:28 10° NW visible
06 Apr ? 17:30:54 10° S 17:34:12 71° W 17:37:31 10° NNW visible
07 Apr ? 18:24:17 10° WSW 18:25:41 12° W 18:27:07 10° WNW visible
08 Apr ? 17:41:13 10° S 17:44:25 47° W 17:47:38 10° NNW visible
10 Apr ? 17:51:13 10° SSW 17:54:14 33° W 17:57:15 10° NNW visible
